owner,sensor,date,latitude,longitude,air_pressure(mBar),qcFlag 
WAVCIS,ioos:station:WAVCIS:CSI15:1,2008-12-01T00:00:00Z,28.8332,-90.8320,1004.142,11111222 
WAVCIS,ioos:station:WAVCIS:CSI15:1,2008-12-01T01:00:00Z,28.8332,-90.8320,1005.253,11111222 
WAVCIS,ioos:station:WAVCIS:CSI15:1,2008-12-01T02:00:00Z,28.8332,-90.8320,1006.443,11111222 
WAVCIS,ioos:station:WAVCIS:CSI15:1,2008-12-01T03:00:00Z,28.8332,-90.8320,1007.98,11111222 
WAVCIS,ioos:station:WAVCIS:CSI15:1,2008-12-01T04:00:00Z,28.8332,-90.8320,1008.84,11111222 
WAVCIS,ioos:station:WAVCIS:CSI15:1,2008-12-01T05:00:00Z,28.8332,-90.8320,1009.39,11111222 
WAVCIS,ioos:station:WAVCIS:CSI15:1,2008-12-01T06:00:00Z,28.8332,-90.8320,1009.58,11111222 
WAVCIS,ioos:station:WAVCIS:CSI15:1,2008-12-01T07:00:00Z,28.8332,-90.8320,1009.69,11111222 
WAVCIS,ioos:station:WAVCIS:CSI15:1,2008-12-01T08:00:00Z,28.8332,-90.8320,1009.98,11111222 
WAVCIS,ioos:station:WAVCIS:CSI15:1,2008-12-01T09:00:00Z,28.8332,-90.8320,1010.37,11111222 
WAVCIS,ioos:station:WAVCIS:CSI15:1,2008-12-01T10:00:00Z,28.8332,-90.8320,1010.89,11111222 
WAVCIS,ioos:station:WAVCIS:CSI15:1,2008-12-01T11:00:00Z,28.8332,-90.8320,1011.19,11111222 
WAVCIS,ioos:station:WAVCIS:CSI15:1,2008-12-01T12:00:00Z,28.8332,-90.8320,1011.75,11111222 
WAVCIS,ioos:station:WAVCIS:CSI15:1,2008-12-01T13:00:00Z,28.8332,-90.8320,1012.55,11111222 
WAVCIS,ioos:station:WAVCIS:CSI15:1,2008-12-01T14:00:00Z,28.8332,-90.8320,1013.57,11111222 
WAVCIS,ioos:station:WAVCIS:CSI15:1,2008-12-01T15:00:00Z,28.8332,-90.8320,1013.71,11111222 
WAVCIS,ioos:station:WAVCIS:CSI15:1,2008-12-01T16:00:00Z,28.8332,-90.8320,1014.28,11111222 
WAVCIS,ioos:station:WAVCIS:CSI15:1,2008-12-01T17:00:00Z,28.8332,-90.8320,1014.65,11111222 
WAVCIS,ioos:station:WAVCIS:CSI15:1,2008-12-01T18:00:00Z,28.8332,-90.8320,1014.67,11111222 
WAVCIS,ioos:station:WAVCIS:CSI15:1,2008-12-01T19:00:00Z,28.8332,-90.8320,1014.73,11111222 
WAVCIS,ioos:station:WAVCIS:CSI15:1,2008-12-01T20:00:00Z,28.8332,-90.8320,1014.96,11111222 
WAVCIS,ioos:station:WAVCIS:CSI15:1,2008-12-01T21:00:00Z,28.8332,-90.8320,1015.34,11111222 
WAVCIS,ioos:station:WAVCIS:CSI15:1,2008-12-01T22:00:00Z,28.8332,-90.8320,1016.01,11111222 
WAVCIS,ioos:station:WAVCIS:CSI15:1,2008-12-01T23:00:00Z,28.8332,-90.8320,1016.92,11111222 
WAVCIS,ioos:station:WAVCIS:CSI15:1,2008-12-02T00:00:00Z,28.8332,-90.8320,1018.11,11111222 
WAVCIS,ioos:station:WAVCIS:CSI15:1,2008-12-02T01:00:00Z,28.8332,-90.8320,1019.16,11111222 
WAVCIS,ioos:station:WAVCIS:CSI15:1,2008-12-02T02:00:00Z,28.8332,-90.8320,1020.06,11111222 
WAVCIS,ioos:station:WAVCIS:CSI15:1,2008-12-02T03:00:00Z,28.8332,-90.8320,1021.08,11111222 
WAVCIS,ioos:station:WAVCIS:CSI15:1,2008-12-02T04:00:00Z,28.8332,-90.8320,1021.91,11111222 
WAVCIS,ioos:station:WAVCIS:CSI15:1,2008-12-02T05:00:00Z,28.8332,-90.8320,1022.64,11111222 
WAVCIS,ioos:station:WAVCIS:CSI15:1,2008-12-02T06:00:00Z,28.8332,-90.8320,1022.68,11111222 
WAVCIS,ioos:station:WAVCIS:CSI15:1,2008-12-02T07:00:00Z,28.8332,-90.8320,1023.04,11111222 
WAVCIS,ioos:station:WAVCIS:CSI15:1,2008-12-02T08:00:00Z,28.8332,-90.8320,1022.95,11111222 
WAVCIS,ioos:station:WAVCIS:CSI15:1,2008-12-02T09:00:00Z,28.8332,-90.8320,1023.38,11111222 
WAVCIS,ioos:station:WAVCIS:CSI15:1,2008-12-02T10:00:00Z,28.8332,-90.8320,1023.51,11111222 
WAVCIS,ioos:station:WAVCIS:CSI15:1,2008-12-02T11:00:00Z,28.8332,-90.8320,1023.6,11111222 
WAVCIS,ioos:station:WAVCIS:CSI15:1,2008-12-02T12:00:00Z,28.8332,-90.8320,1023.75,11111222 
WAVCIS,ioos:station:WAVCIS:CSI15:1,2008-12-02T13:00:00Z,28.8332,-90.8320,1023.86,11111222 
WAVCIS,ioos:station:WAVCIS:CSI15:1,2008-12-02T14:00:00Z,28.8332,-90.8320,1024.19,11111222 
WAVCIS,ioos:station:WAVCIS:CSI15:1,2008-12-02T15:00:00Z,28.8332,-90.8320,1024.91,11111222 
WAVCIS,ioos:station:WAVCIS:CSI15:1,2008-12-02T16:00:00Z,28.8332,-90.8320,1025.06,11111222 
WAVCIS,ioos:station:WAVCIS:CSI15:1,2008-12-02T17:00:00Z,28.8332,-90.8320,1024.74,11111222 
WAVCIS,ioos:station:WAVCIS:CSI15:1,2008-12-02T18:00:00Z,28.8332,-90.8320,1023.82,11111222 
WAVCIS,ioos:station:WAVCIS:CSI15:1,2008-12-02T19:00:00Z,28.8332,-90.8320,1022.88,11111222 
WAVCIS,ioos:station:WAVCIS:CSI15:1,2008-12-02T20:00:00Z,28.8332,-90.8320,1022.49,11111222 
WAVCIS,ioos:station:WAVCIS:CSI15:1,2008-12-02T21:00:00Z,28.8332,-90.8320,1021.92,11111222 
WAVCIS,ioos:station:WAVCIS:CSI15:1,2008-12-02T22:00:00Z,28.8332,-90.8320,1021.55,11111222 
WAVCIS,ioos:station:WAVCIS:CSI15:1,2008-12-02T23:00:00Z,28.8332,-90.8320,1021.23,11111222 
WAVCIS,ioos:station:WAVCIS:CSI15:1,2008-12-03T00:00:00Z,28.8332,-90.8320,1021.12,11111222 
WAVCIS,ioos:station:WAVCIS:CSI15:1,2008-12-03T01:00:00Z,28.8332,-90.8320,1021.1,11111222 
WAVCIS,ioos:station:WAVCIS:CSI15:1,2008-12-03T02:00:00Z,28.8332,-90.8320,1021.2,11111222 
WAVCIS,ioos:station:WAVCIS:CSI15:1,2008-12-03T03:00:00Z,28.8332,-90.8320,1021.02,11111222 
WAVCIS,ioos:station:WAVCIS:CSI15:1,2008-12-03T04:00:00Z,28.8332,-90.8320,1020.66,11111222 
WAVCIS,ioos:station:WAVCIS:CSI15:1,2008-12-03T05:00:00Z,28.8332,-90.8320,1020.19,11111222 
WAVCIS,ioos:station:WAVCIS:CSI15:1,2008-12-03T06:00:00Z,28.8332,-90.8320,1019.54,11111222 
WAVCIS,ioos:station:WAVCIS:CSI15:1,2008-12-03T07:00:00Z,28.8332,-90.8320,1018.69,11111222 
WAVCIS,ioos:station:WAVCIS:CSI15:1,2008-12-03T08:00:00Z,28.8332,-90.8320,1018.2,11111222 
WAVCIS,ioos:station:WAVCIS:CSI15:1,2008-12-03T09:00:00Z,28.8332,-90.8320,1018.19,11111222 
WAVCIS,ioos:station:WAVCIS:CSI15:1,2008-12-03T10:00:00Z,28.8332,-90.8320,1018.24,11111222 
WAVCIS,ioos:station:WAVCIS:CSI15:1,2008-12-03T11:00:00Z,28.8332,-90.8320,1017.78,11111222 
WAVCIS,ioos:station:WAVCIS:CSI15:1,2008-12-03T12:00:00Z,28.8332,-90.8320,1018.06,11111222 
WAVCIS,ioos:station:WAVCIS:CSI15:1,2008-12-03T13:00:00Z,28.8332,-90.8320,1018.26,11111222 
WAVCIS,ioos:station:WAVCIS:CSI15:1,2008-12-03T14:00:00Z,28.8332,-90.8320,1018.38,11111222 
WAVCIS,ioos:station:WAVCIS:CSI15:1,2008-12-03T15:00:00Z,28.8332,-90.8320,1018.77,11111222 
WAVCIS,ioos:station:WAVCIS:CSI15:1,2008-12-03T16:00:00Z,28.8332,-90.8320,1018.95,11111222 
WAVCIS,ioos:station:WAVCIS:CSI15:1,2008-12-03T17:00:00Z,28.8332,-90.8320,1018.68,11111222 
WAVCIS,ioos:station:WAVCIS:CSI15:1,2008-12-03T18:00:00Z,28.8332,-90.8320,1018.07,11111222 
WAVCIS,ioos:station:WAVCIS:CSI15:1,2008-12-03T19:00:00Z,28.8332,-90.8320,1017.12,11111222 
WAVCIS,ioos:station:WAVCIS:CSI15:1,2008-12-03T20:00:00Z,28.8332,-90.8320,1016.71,11111222 
WAVCIS,ioos:station:WAVCIS:CSI15:1,2008-12-03T21:00:00Z,28.8332,-90.8320,1016.43,11111222 
WAVCIS,ioos:station:WAVCIS:CSI15:1,2008-12-03T22:00:00Z,28.8332,-90.8320,1016.17,11111222 
WAVCIS,ioos:station:WAVCIS:CSI15:1,2008-12-03T23:00:00Z,28.8332,-90.8320,1016.33,11111222 
WAVCIS,ioos:station:WAVCIS:CSI15:1,2008-12-04T00:00:00Z,28.8332,-90.8320,1016.65,11111222 
WAVCIS,ioos:station:WAVCIS:CSI15:1,2008-12-04T01:00:00Z,28.8332,-90.8320,1016.97,11111222 
WAVCIS,ioos:station:WAVCIS:CSI15:1,2008-12-04T02:00:00Z,28.8332,-90.8320,1016.67,11111222 
WAVCIS,ioos:station:WAVCIS:CSI15:1,2008-12-04T03:00:00Z,28.8332,-90.8320,1016.57,11111222 
WAVCIS,ioos:station:WAVCIS:CSI15:1,2008-12-04T04:00:00Z,28.8332,-90.8320,1016.49,11111222 
WAVCIS,ioos:station:WAVCIS:CSI15:1,2008-12-04T05:00:00Z,28.8332,-90.8320,1015.73,11111222 
WAVCIS,ioos:station:WAVCIS:CSI15:1,2008-12-04T06:00:00Z,28.8332,-90.8320,1015.9,11111222 
WAVCIS,ioos:station:WAVCIS:CSI15:1,2008-12-04T07:00:00Z,28.8332,-90.8320,1015.39,11111222 
WAVCIS,ioos:station:WAVCIS:CSI15:1,2008-12-04T08:00:00Z,28.8332,-90.8320,1015.44,11111222 
WAVCIS,ioos:station:WAVCIS:CSI15:1,2008-12-04T09:00:00Z,28.8332,-90.8320,1014.89,11111222 
WAVCIS,ioos:station:WAVCIS:CSI15:1,2008-12-04T10:00:00Z,28.8332,-90.8320,1014.2,11111222 
WAVCIS,ioos:station:WAVCIS:CSI15:1,2008-12-04T11:00:00Z,28.8332,-90.8320,1014.43,11111222 
WAVCIS,ioos:station:WAVCIS:CSI15:1,2008-12-04T12:00:00Z,28.8332,-90.8320,1014.94,11111222 
WAVCIS,ioos:station:WAVCIS:CSI15:1,2008-12-04T13:00:00Z,28.8332,-90.8320,1015.29,11111222 
WAVCIS,ioos:station:WAVCIS:CSI15:1,2008-12-04T14:00:00Z,28.8332,-90.8320,1016.23,11111222 
WAVCIS,ioos:station:WAVCIS:CSI15:1,2008-12-04T15:00:00Z,28.8332,-90.8320,1017.33,11111222 
WAVCIS,ioos:station:WAVCIS:CSI15:1,2008-12-04T16:00:00Z,28.8332,-90.8320,1017.6,11111222 
WAVCIS,ioos:station:WAVCIS:CSI15:1,2008-12-04T17:00:00Z,28.8332,-90.8320,1017.48,11111222 
WAVCIS,ioos:station:WAVCIS:CSI15:1,2008-12-04T18:00:00Z,28.8332,-90.8320,1017.01,11111222 
WAVCIS,ioos:station:WAVCIS:CSI15:1,2008-12-04T19:00:00Z,28.8332,-90.8320,1016.44,11111222 
WAVCIS,ioos:station:WAVCIS:CSI15:1,2008-12-04T20:00:00Z,28.8332,-90.8320,1016.29,11111222 
WAVCIS,ioos:station:WAVCIS:CSI15:1,2008-12-04T21:00:00Z,28.8332,-90.8320,1016.4,11111222 
WAVCIS,ioos:station:WAVCIS:CSI15:1,2008-12-04T22:00:00Z,28.8332,-90.8320,1017.08,11111222 
WAVCIS,ioos:station:WAVCIS:CSI15:1,2008-12-04T23:00:00Z,28.8332,-90.8320,1017.72,11111222 
WAVCIS,ioos:station:WAVCIS:CSI15:1,2008-12-05T00:00:00Z,28.8332,-90.8320,1018.25,11111222 
WAVCIS,ioos:station:WAVCIS:CSI15:1,2008-12-05T01:00:00Z,28.8332,-90.8320,1019.08,11111222 
WAVCIS,ioos:station:WAVCIS:CSI15:1,2008-12-05T02:00:00Z,28.8332,-90.8320,1019.78,11111222 
WAVCIS,ioos:station:WAVCIS:CSI15:1,2008-12-05T03:00:00Z,28.8332,-90.8320,1020.17,11111222 
WAVCIS,ioos:station:WAVCIS:CSI15:1,2008-12-05T04:00:00Z,28.8332,-90.8320,1020.75,11111222 
WAVCIS,ioos:station:WAVCIS:CSI15:1,2008-12-05T05:00:00Z,28.8332,-90.8320,1021.01,11111222 
WAVCIS,ioos:station:WAVCIS:CSI15:1,2008-12-05T06:00:00Z,28.8332,-90.8320,1020.57,11111222 
WAVCIS,ioos:station:WAVCIS:CSI15:1,2008-12-05T07:00:00Z,28.8332,-90.8320,1020.74,11111222 
WAVCIS,ioos:station:WAVCIS:CSI15:1,2008-12-05T08:00:00Z,28.8332,-90.8320,1020.66,11111222 
WAVCIS,ioos:station:WAVCIS:CSI15:1,2008-12-05T09:00:00Z,28.8332,-90.8320,1020.73,11111222 
WAVCIS,ioos:station:WAVCIS:CSI15:1,2008-12-05T10:00:00Z,28.8332,-90.8320,1020.63,11111222 
WAVCIS,ioos:station:WAVCIS:CSI15:1,2008-12-05T11:00:00Z,28.8332,-90.8320,1020.22,11111222 
WAVCIS,ioos:station:WAVCIS:CSI15:1,2008-12-05T12:00:00Z,28.8332,-90.8320,1021.16,11111222 
WAVCIS,ioos:station:WAVCIS:CSI15:1,2008-12-05T13:00:00Z,28.8332,-90.8320,1021.66,11111222 
WAVCIS,ioos:station:WAVCIS:CSI15:1,2008-12-05T14:00:00Z,28.8332,-90.8320,1022.57,11111222 
WAVCIS,ioos:station:WAVCIS:CSI15:1,2008-12-05T15:00:00Z,28.8332,-90.8320,1023.27,11111222 
WAVCIS,ioos:station:WAVCIS:CSI15:1,2008-12-05T16:00:00Z,28.8332,-90.8320,1023.55,11111222 
WAVCIS,ioos:station:WAVCIS:CSI15:1,2008-12-05T17:00:00Z,28.8332,-90.8320,1022.72,11111222 
WAVCIS,ioos:station:WAVCIS:CSI15:1,2008-12-05T18:00:00Z,28.8332,-90.8320,1021.98,11111222 
WAVCIS,ioos:station:WAVCIS:CSI15:1,2008-12-05T19:00:00Z,28.8332,-90.8320,1021.47,11111222 
WAVCIS,ioos:station:WAVCIS:CSI15:1,2008-12-05T20:00:00Z,28.8332,-90.8320,1020.59,11111222 
WAVCIS,ioos:station:WAVCIS:CSI15:1,2008-12-05T21:00:00Z,28.8332,-90.8320,1019.92,11111222 
WAVCIS,ioos:station:WAVCIS:CSI15:1,2008-12-05T22:00:00Z,28.8332,-90.8320,1019.26,11111222 
WAVCIS,ioos:station:WAVCIS:CSI15:1,2008-12-05T23:00:00Z,28.8332,-90.8320,1019.1,11111222 
WAVCIS,ioos:station:WAVCIS:CSI15:1,2008-12-06T00:00:00Z,28.8332,-90.8320,1019.26,11111222 
WAVCIS,ioos:station:WAVCIS:CSI15:1,2008-12-06T01:00:00Z,28.8332,-90.8320,1019.59,11111222 
WAVCIS,ioos:station:WAVCIS:CSI15:1,2008-12-06T02:00:00Z,28.8332,-90.8320,1019.42,11111222 
WAVCIS,ioos:station:WAVCIS:CSI15:1,2008-12-06T03:00:00Z,28.8332,-90.8320,1019.37,11111222 
WAVCIS,ioos:station:WAVCIS:CSI15:1,2008-12-06T04:00:00Z,28.8332,-90.8320,1018.99,11111222 
WAVCIS,ioos:station:WAVCIS:CSI15:1,2008-12-06T05:00:00Z,28.8332,-90.8320,1018.74,11111222 
WAVCIS,ioos:station:WAVCIS:CSI15:1,2008-12-06T06:00:00Z,28.8332,-90.8320,1018.64,11111222 
WAVCIS,ioos:station:WAVCIS:CSI15:1,2008-12-06T07:00:00Z,28.8332,-90.8320,1018.35,11111222 
WAVCIS,ioos:station:WAVCIS:CSI15:1,2008-12-06T08:00:00Z,28.8332,-90.8320,1017.88,11111222 
WAVCIS,ioos:station:WAVCIS:CSI15:1,2008-12-06T09:00:00Z,28.8332,-90.8320,1017.43,11111222 
WAVCIS,ioos:station:WAVCIS:CSI15:1,2008-12-06T10:00:00Z,28.8332,-90.8320,1016.69,11111222 
WAVCIS,ioos:station:WAVCIS:CSI15:1,2008-12-06T11:00:00Z,28.8332,-90.8320,1016.71,11111222 
WAVCIS,ioos:station:WAVCIS:CSI15:1,2008-12-06T12:00:00Z,28.8332,-90.8320,1016.95,11111222 
WAVCIS,ioos:station:WAVCIS:CSI15:1,2008-12-06T13:00:00Z,28.8332,-90.8320,1017.8,11111222 
WAVCIS,ioos:station:WAVCIS:CSI15:1,2008-12-06T14:00:00Z,28.8332,-90.8320,1018.0,11111222 
WAVCIS,ioos:station:WAVCIS:CSI15:1,2008-12-06T15:00:00Z,28.8332,-90.8320,1018.09,11111222 
WAVCIS,ioos:station:WAVCIS:CSI15:1,2008-12-06T16:00:00Z,28.8332,-90.8320,1018.52,11111222 
WAVCIS,ioos:station:WAVCIS:CSI15:1,2008-12-06T17:00:00Z,28.8332,-90.8320,1018.4,11111222 
WAVCIS,ioos:station:WAVCIS:CSI15:1,2008-12-06T18:00:00Z,28.8332,-90.8320,1017.88,11111222 
WAVCIS,ioos:station:WAVCIS:CSI15:1,2008-12-06T19:00:00Z,28.8332,-90.8320,1017.12,11111222 
WAVCIS,ioos:station:WAVCIS:CSI15:1,2008-12-06T20:00:00Z,28.8332,-90.8320,1016.44,11111222 
WAVCIS,ioos:station:WAVCIS:CSI15:1,2008-12-06T21:00:00Z,28.8332,-90.8320,1016.4,11111222 
WAVCIS,ioos:station:WAVCIS:CSI15:1,2008-12-06T22:00:00Z,28.8332,-90.8320,1016.56,11111222 
WAVCIS,ioos:station:WAVCIS:CSI15:1,2008-12-06T23:00:00Z,28.8332,-90.8320,1016.73,11111222 
WAVCIS,ioos:station:WAVCIS:CSI15:1,2008-12-07T00:00:00Z,28.8332,-90.8320,1017.55,11111222 
WAVCIS,ioos:station:WAVCIS:CSI15:1,2008-12-07T01:00:00Z,28.8332,-90.8320,1018.0,11111222 
WAVCIS,ioos:station:WAVCIS:CSI15:1,2008-12-07T02:00:00Z,28.8332,-90.8320,1018.27,11111222 
WAVCIS,ioos:station:WAVCIS:CSI15:1,2008-12-07T03:00:00Z,28.8332,-90.8320,1018.88,11111222 
WAVCIS,ioos:station:WAVCIS:CSI15:1,2008-12-07T04:00:00Z,28.8332,-90.8320,1019.14,11111222 
WAVCIS,ioos:station:WAVCIS:CSI15:1,2008-12-07T05:00:00Z,28.8332,-90.8320,1019.33,11111222 
WAVCIS,ioos:station:WAVCIS:CSI15:1,2008-12-07T06:00:00Z,28.8332,-90.8320,1019.23,11111222 
WAVCIS,ioos:station:WAVCIS:CSI15:1,2008-12-07T07:00:00Z,28.8332,-90.8320,1019.6,11111222 
WAVCIS,ioos:station:WAVCIS:CSI15:1,2008-12-07T08:00:00Z,28.8332,-90.8320,1019.93,11111222 
WAVCIS,ioos:station:WAVCIS:CSI15:1,2008-12-07T09:00:00Z,28.8332,-90.8320,1020.04,11111222 
WAVCIS,ioos:station:WAVCIS:CSI15:1,2008-12-07T10:00:00Z,28.8332,-90.8320,1020.15,11111222 
WAVCIS,ioos:station:WAVCIS:CSI15:1,2008-12-07T11:00:00Z,28.8332,-90.8320,1020.37,11111222 
WAVCIS,ioos:station:WAVCIS:CSI15:1,2008-12-07T12:00:00Z,28.8332,-90.8320,1021.3,11111222 
WAVCIS,ioos:station:WAVCIS:CSI15:1,2008-12-07T13:00:00Z,28.8332,-90.8320,1021.93,11111222 
WAVCIS,ioos:station:WAVCIS:CSI15:1,2008-12-07T14:00:00Z,28.8332,-90.8320,1022.59,11111222 
WAVCIS,ioos:station:WAVCIS:CSI15:1,2008-12-07T15:00:00Z,28.8332,-90.8320,1023.24,11111222 
WAVCIS,ioos:station:WAVCIS:CSI15:1,2008-12-07T16:00:00Z,28.8332,-90.8320,1023.26,11111222 
WAVCIS,ioos:station:WAVCIS:CSI15:1,2008-12-07T17:00:00Z,28.8332,-90.8320,1022.88,11111222 
WAVCIS,ioos:station:WAVCIS:CSI15:1,2008-12-07T18:00:00Z,28.8332,-90.8320,1022.07,11111222 
WAVCIS,ioos:station:WAVCIS:CSI15:1,2008-12-07T19:00:00Z,28.8332,-90.8320,1021.17,11111222 
WAVCIS,ioos:station:WAVCIS:CSI15:1,2008-12-07T20:00:00Z,28.8332,-90.8320,1020.46,11111222 
WAVCIS,ioos:station:WAVCIS:CSI15:1,2008-12-07T21:00:00Z,28.8332,-90.8320,1020.41,11111222 
WAVCIS,ioos:station:WAVCIS:CSI15:1,2008-12-07T22:00:00Z,28.8332,-90.8320,1020.24,11111222 
WAVCIS,ioos:station:WAVCIS:CSI15:1,2008-12-07T23:00:00Z,28.8332,-90.8320,1020.3,11111222 
WAVCIS,ioos:station:WAVCIS:CSI15:1,2008-12-08T00:00:00Z,28.8332,-90.8320,1020.28,11111222 
WAVCIS,ioos:station:WAVCIS:CSI15:1,2008-12-08T01:00:00Z,28.8332,-90.8320,1020.3,11111222 
WAVCIS,ioos:station:WAVCIS:CSI15:1,2008-12-08T02:00:00Z,28.8332,-90.8320,1020.19,11111222 
WAVCIS,ioos:station:WAVCIS:CSI15:1,2008-12-08T03:00:00Z,28.8332,-90.8320,1019.89,11111222 
WAVCIS,ioos:station:WAVCIS:CSI15:1,2008-12-08T04:00:00Z,28.8332,-90.8320,1019.52,11111222 
WAVCIS,ioos:station:WAVCIS:CSI15:1,2008-12-08T05:00:00Z,28.8332,-90.8320,1019.26,11111222 
WAVCIS,ioos:station:WAVCIS:CSI15:1,2008-12-08T06:00:00Z,28.8332,-90.8320,1018.9,11111222 
WAVCIS,ioos:station:WAVCIS:CSI15:1,2008-12-08T07:00:00Z,28.8332,-90.8320,1018.58,11111222 
WAVCIS,ioos:station:WAVCIS:CSI15:1,2008-12-08T08:00:00Z,28.8332,-90.8320,1017.84,11111222 
WAVCIS,ioos:station:WAVCIS:CSI15:1,2008-12-08T09:00:00Z,28.8332,-90.8320,1017.7,11111222 
WAVCIS,ioos:station:WAVCIS:CSI15:1,2008-12-08T10:00:00Z,28.8332,-90.8320,1017.08,11111222 
WAVCIS,ioos:station:WAVCIS:CSI15:1,2008-12-08T11:00:00Z,28.8332,-90.8320,1017.09,11111222 
WAVCIS,ioos:station:WAVCIS:CSI15:1,2008-12-08T12:00:00Z,28.8332,-90.8320,1017.68,11111222 
WAVCIS,ioos:station:WAVCIS:CSI15:1,2008-12-08T13:00:00Z,28.8332,-90.8320,1017.8,11111222 
WAVCIS,ioos:station:WAVCIS:CSI15:1,2008-12-08T14:00:00Z,28.8332,-90.8320,1017.47,11111222 
WAVCIS,ioos:station:WAVCIS:CSI15:1,2008-12-08T15:00:00Z,28.8332,-90.8320,1017.54,11111222 
WAVCIS,ioos:station:WAVCIS:CSI15:1,2008-12-08T16:00:00Z,28.8332,-90.8320,1017.27,11111222 
WAVCIS,ioos:station:WAVCIS:CSI15:1,2008-12-08T17:00:00Z,28.8332,-90.8320,1016.87,11111222 
WAVCIS,ioos:station:WAVCIS:CSI15:1,2008-12-08T18:00:00Z,28.8332,-90.8320,1015.73,11111222 
WAVCIS,ioos:station:WAVCIS:CSI15:1,2008-12-08T19:00:00Z,28.8332,-90.8320,1014.4,11111222 
WAVCIS,ioos:station:WAVCIS:CSI15:1,2008-12-08T20:00:00Z,28.8332,-90.8320,1013.48,11111222 
WAVCIS,ioos:station:WAVCIS:CSI15:1,2008-12-08T21:00:00Z,28.8332,-90.8320,1013.06,11111222 
WAVCIS,ioos:station:WAVCIS:CSI15:1,2008-12-08T22:00:00Z,28.8332,-90.8320,1013.14,11111222 
WAVCIS,ioos:station:WAVCIS:CSI15:1,2008-12-08T23:00:00Z,28.8332,-90.8320,1013.0,11111222 
WAVCIS,ioos:station:WAVCIS:CSI15:1,2008-12-09T00:00:00Z,28.8332,-90.8320,1012.53,11111222 
WAVCIS,ioos:station:WAVCIS:CSI15:1,2008-12-09T01:00:00Z,28.8332,-90.8320,1012.24,11111222 
WAVCIS,ioos:station:WAVCIS:CSI15:1,2008-12-09T02:00:00Z,28.8332,-90.8320,1012.06,11111222 
WAVCIS,ioos:station:WAVCIS:CSI15:1,2008-12-09T03:00:00Z,28.8332,-90.8320,1011.72,11111222 
WAVCIS,ioos:station:WAVCIS:CSI15:1,2008-12-09T04:00:00Z,28.8332,-90.8320,1012.16,11111222 
WAVCIS,ioos:station:WAVCIS:CSI15:1,2008-12-09T05:00:00Z,28.8332,-90.8320,1011.83,11111222 
WAVCIS,ioos:station:WAVCIS:CSI15:1,2008-12-09T06:00:00Z,28.8332,-90.8320,1010.76,11111222 
WAVCIS,ioos:station:WAVCIS:CSI15:1,2008-12-09T07:00:00Z,28.8332,-90.8320,1009.82,11111222 
WAVCIS,ioos:station:WAVCIS:CSI15:1,2008-12-09T08:00:00Z,28.8332,-90.8320,1009.82,11111222 
WAVCIS,ioos:station:WAVCIS:CSI15:1,2008-12-09T09:00:00Z,28.8332,-90.8320,1009.29,11111222 
WAVCIS,ioos:station:WAVCIS:CSI15:1,2008-12-09T10:00:00Z,28.8332,-90.8320,1009.35,11111222 
WAVCIS,ioos:station:WAVCIS:CSI15:1,2008-12-09T11:00:00Z,28.8332,-90.8320,1008.71,11111222 
WAVCIS,ioos:station:WAVCIS:CSI15:1,2008-12-09T12:00:00Z,28.8332,-90.8320,1008.9,11111222 
WAVCIS,ioos:station:WAVCIS:CSI15:1,2008-12-09T13:00:00Z,28.8332,-90.8320,1009.54,11111222 
WAVCIS,ioos:station:WAVCIS:CSI15:1,2008-12-09T14:00:00Z,28.8332,-90.8320,1009.52,11111222 
WAVCIS,ioos:station:WAVCIS:CSI15:1,2008-12-09T15:00:00Z,28.8332,-90.8320,1009.73,11111222 
WAVCIS,ioos:station:WAVCIS:CSI15:1,2008-12-09T16:00:00Z,28.8332,-90.8320,1009.35,11111222 
WAVCIS,ioos:station:WAVCIS:CSI15:1,2008-12-09T17:00:00Z,28.8332,-90.8320,1009.0,11111222 
WAVCIS,ioos:station:WAVCIS:CSI15:1,2008-12-09T18:00:00Z,28.8332,-90.8320,1008.36,11111222 
WAVCIS,ioos:station:WAVCIS:CSI15:1,2008-12-09T19:00:00Z,28.8332,-90.8320,1007.6,11111222 
WAVCIS,ioos:station:WAVCIS:CSI15:1,2008-12-09T20:00:00Z,28.8332,-90.8320,1007.126,11111222 
WAVCIS,ioos:station:WAVCIS:CSI15:1,2008-12-09T21:00:00Z,28.8332,-90.8320,1006.032,11111222 
WAVCIS,ioos:station:WAVCIS:CSI15:1,2008-12-09T22:00:00Z,28.8332,-90.8320,1005.242,11111222 
WAVCIS,ioos:station:WAVCIS:CSI15:1,2008-12-09T23:00:00Z,28.8332,-90.8320,1005.077,11111222 
WAVCIS,ioos:station:WAVCIS:CSI15:1,2008-12-10T00:00:00Z,28.8332,-90.8320,1005.369,11111222 
WAVCIS,ioos:station:WAVCIS:CSI15:1,2008-12-10T01:00:00Z,28.8332,-90.8320,1005.479,11111222 
WAVCIS,ioos:station:WAVCIS:CSI15:1,2008-12-10T02:00:00Z,28.8332,-90.8320,1006.205,11111222 
WAVCIS,ioos:station:WAVCIS:CSI15:1,2008-12-10T03:00:00Z,28.8332,-90.8320,1007.103,11111222 
WAVCIS,ioos:station:WAVCIS:CSI15:1,2008-12-10T04:00:00Z,28.8332,-90.8320,1007.44,11111222 
WAVCIS,ioos:station:WAVCIS:CSI15:1,2008-12-10T05:00:00Z,28.8332,-90.8320,1007.36,11111222 
WAVCIS,ioos:station:WAVCIS:CSI15:1,2008-12-10T06:00:00Z,28.8332,-90.8320,1006.986,11111222 
WAVCIS,ioos:station:WAVCIS:CSI15:1,2008-12-10T07:00:00Z,28.8332,-90.8320,1006.496,11111222 
WAVCIS,ioos:station:WAVCIS:CSI15:1,2008-12-10T08:00:00Z,28.8332,-90.8320,1005.527,11111222 
WAVCIS,ioos:station:WAVCIS:CSI15:1,2008-12-10T09:00:00Z,28.8332,-90.8320,1005.705,11111222 
WAVCIS,ioos:station:WAVCIS:CSI15:1,2008-12-10T10:00:00Z,28.8332,-90.8320,1004.825,11111222 
WAVCIS,ioos:station:WAVCIS:CSI15:1,2008-12-10T11:00:00Z,28.8332,-90.8320,1005.319,11111222 
WAVCIS,ioos:station:WAVCIS:CSI15:1,2008-12-10T12:00:00Z,28.8332,-90.8320,1005.926,11111222 
WAVCIS,ioos:station:WAVCIS:CSI15:1,2008-12-10T13:00:00Z,28.8332,-90.8320,1006.929,11111222 
WAVCIS,ioos:station:WAVCIS:CSI15:1,2008-12-10T14:00:00Z,28.8332,-90.8320,1007.89,11111222 
WAVCIS,ioos:station:WAVCIS:CSI15:1,2008-12-10T15:00:00Z,28.8332,-90.8320,1008.81,11111222 
WAVCIS,ioos:station:WAVCIS:CSI15:1,2008-12-10T16:00:00Z,28.8332,-90.8320,1010.29,11111222 
WAVCIS,ioos:station:WAVCIS:CSI15:1,2008-12-10T17:00:00Z,28.8332,-90.8320,1009.94,11111222 
WAVCIS,ioos:station:WAVCIS:CSI15:1,2008-12-10T18:00:00Z,28.8332,-90.8320,1008.68,11111222 
WAVCIS,ioos:station:WAVCIS:CSI15:1,2008-12-10T19:00:00Z,28.8332,-90.8320,1008.08,11111222 
WAVCIS,ioos:station:WAVCIS:CSI15:1,2008-12-10T20:00:00Z,28.8332,-90.8320,1007.54,11111222 
WAVCIS,ioos:station:WAVCIS:CSI15:1,2008-12-10T21:00:00Z,28.8332,-90.8320,1007.57,11111222 
WAVCIS,ioos:station:WAVCIS:CSI15:1,2008-12-10T22:00:00Z,28.8332,-90.8320,1008.73,11111222 
WAVCIS,ioos:station:WAVCIS:CSI15:1,2008-12-10T23:00:00Z,28.8332,-90.8320,1008.6,11111222 
WAVCIS,ioos:station:WAVCIS:CSI15:1,2008-12-11T00:00:00Z,28.8332,-90.8320,1008.99,11111222 
WAVCIS,ioos:station:WAVCIS:CSI15:1,2008-12-11T01:00:00Z,28.8332,-90.8320,1008.77,11111222 
WAVCIS,ioos:station:WAVCIS:CSI15:1,2008-12-11T02:00:00Z,28.8332,-90.8320,1010.36,11111222 
WAVCIS,ioos:station:WAVCIS:CSI15:1,2008-12-11T03:00:00Z,28.8332,-90.8320,1009.37,11111222 
WAVCIS,ioos:station:WAVCIS:CSI15:1,2008-12-11T04:00:00Z,28.8332,-90.8320,1009.9,11111222 
WAVCIS,ioos:station:WAVCIS:CSI15:1,2008-12-11T05:00:00Z,28.8332,-90.8320,1009.62,11111222 
WAVCIS,ioos:station:WAVCIS:CSI15:1,2008-12-11T06:00:00Z,28.8332,-90.8320,1008.53,11111222 
WAVCIS,ioos:station:WAVCIS:CSI15:1,2008-12-11T07:00:00Z,28.8332,-90.8320,1008.2,11111222 
WAVCIS,ioos:station:WAVCIS:CSI15:1,2008-12-11T08:00:00Z,28.8332,-90.8320,1008.17,11111222 
WAVCIS,ioos:station:WAVCIS:CSI15:1,2008-12-11T09:00:00Z,28.8332,-90.8320,1007.6,11111222 
WAVCIS,ioos:station:WAVCIS:CSI15:1,2008-12-11T10:00:00Z,28.8332,-90.8320,1007.041,11111222 
WAVCIS,ioos:station:WAVCIS:CSI15:1,2008-12-11T11:00:00Z,28.8332,-90.8320,1006.932,11111222 
WAVCIS,ioos:station:WAVCIS:CSI15:1,2008-12-11T12:00:00Z,28.8332,-90.8320,1007.8,11111222 
WAVCIS,ioos:station:WAVCIS:CSI15:1,2008-12-11T13:00:00Z,28.8332,-90.8320,1008.44,11111222 
WAVCIS,ioos:station:WAVCIS:CSI15:1,2008-12-11T14:00:00Z,28.8332,-90.8320,1008.21,11111222 
WAVCIS,ioos:station:WAVCIS:CSI15:1,2008-12-11T15:00:00Z,28.8332,-90.8320,1008.81,11111222 
WAVCIS,ioos:station:WAVCIS:CSI15:1,2008-12-11T16:00:00Z,28.8332,-90.8320,1008.63,11111222 
WAVCIS,ioos:station:WAVCIS:CSI15:1,2008-12-11T17:00:00Z,28.8332,-90.8320,1009.21,11111222 
WAVCIS,ioos:station:WAVCIS:CSI15:1,2008-12-11T18:00:00Z,28.8332,-90.8320,1008.8,11111222 
WAVCIS,ioos:station:WAVCIS:CSI15:1,2008-12-11T19:00:00Z,28.8332,-90.8320,1008.34,11111222 
WAVCIS,ioos:station:WAVCIS:CSI15:1,2008-12-11T20:00:00Z,28.8332,-90.8320,1008.53,11111222 
WAVCIS,ioos:station:WAVCIS:CSI15:1,2008-12-11T21:00:00Z,28.8332,-90.8320,1008.66,11111222 
WAVCIS,ioos:station:WAVCIS:CSI15:1,2008-12-11T22:00:00Z,28.8332,-90.8320,1009.85,11111222 